GW1775 Weather Reports


time (UTC)temp
C
wind
direction
speed
KPH
gust
KPH
rain 1hr
cm
rain 24hr
cm
rain mn
cm
humidity
%
barometer
mb
20260906125601 20 140 1.6 3.2 0.00 0.00 0.00 99 1018.9
20260906125100 20 195 4.8 4.8 0.00 0.00 0.00 99 1018.9
20260906124556 19 124 4.8 8.0 0.00 0.00 0.00 99 1018.6
20260906124051 19 187 4.8 4.8 0.00 0.00 0.00 99 1018.7
20260906123550 19 149 3.2 3.2 0.00 0.00 0.00 99 1018.8
20260906123045 19 98 11.3 12.9 0.00 0.00 0.00 99 1018.8
20260906122544 19 98 4.8 4.8 0.00 0.00 0.00 99 1018.7
20260906122041 19 123 1.6 1.6 0.00 0.00 0.00 99 1018.8
20260906121536 19 147 3.2 3.2 0.00 0.00 0.00 99 1018.5
20260906121033 19 133 4.8 4.8 0.00 0.00 0.00 99 1018.5
20260906120528 19 86 0.0 1.6 0.00 0.00 0.00 99 1018.5
20260906120026 19 122 1.6 1.6 0.00 0.00 0.00 99 1018.3
20260906115525 19 85 0.0 1.6 0.00 0.00 0.00 99 1018.6
20260906115020 19 199 0.0 0.0 0.00 0.00 0.00 99 1018.4
20260906114514 19 147 4.8 4.8 0.00 0.00 0.00 99 1018.2
20260906114010 19 161 1.6 1.6 0.00 0.00 0.00 99 1018.2
20260906113509 18 109 0.0 1.6 0.00 0.00 0.00 99 1018.5
20260906113004 18 185 0.0 0.0 0.00 0.00 0.00 99 1018.5
20260906112458 18 203 0.0 0.0 0.00 0.00 0.00 99 1018.3
20260906111955 18 160 0.0 0.0 0.00 0.00 0.00 99 1018.5
20260906111449 18 168 0.0 0.0 0.00 0.00 0.00 99 1018.3
20260906110944 18 270 0.0 0.0 0.00 0.00 0.00 99 1018.4
20260906110439 18 135 0.0 0.0 0.00 0.00 0.00 99 1018.4
20260906105938 18 152 0.0 0.0 0.00 0.00 0.00 99 1018.5
20260906105434 18 152 0.0 0.0 0.00 0.00 0.00 99 1018.2
20260906104930 18 204 0.0 0.0 0.00 0.00 0.00 99 1018.5
20260906104428 18 174 0.0 0.0 0.00 0.00 0.00 99 1018.4
20260906103928 18 175 0.0 0.0 0.00 0.00 0.00 99 1018.4
20260906103426 18 195 0.0 0.0 0.00 0.00 0.00 99 1018.3
20260906102921 19 154 0.0 0.0 0.00 0.00 0.00 99 1018.1
20260906102421 19 165 0.0 0.0 0.00 0.00 0.00 99 1018.3
20260906101916 19 192 1.6 1.6 0.00 0.00 0.00 99 1017.9
20260906101411 19 87 0.0 1.6 0.00 0.00 0.00 99 1018.1
20260906100907 19 162 0.0 0.0 0.00 0.00 0.00 99 1018.2
20260906100406 19 190 0.0 0.0 0.00 0.00 0.00 99 1018.0
20260906095901 19 163 0.0 0.0 0.00 0.00 0.00 99 1017.9
20260906095356 19 113 1.6 1.6 0.00 0.00 0.00 99 1018.1
20260906094855 19 119 0.0 0.0 0.00 0.00 0.00 99 1018.0
20260906094351 19 154 0.0 0.0 0.00 0.00 0.00 99 1018.0
20260906093847 19 236 0.0 1.6 0.00 0.00 0.00 99 1018.1
20260906093343 19 170 0.0 0.0 0.00 0.00 0.00 99 1017.9
20260906092837 19 174 0.0 0.0 0.00 0.00 0.00 99 1017.6
20260906092331 20 174 1.6 1.6 0.00 0.00 0.00 99 1017.7
20260906091827 20 168 1.6 1.6 0.00 0.00 0.00 99 1017.5
20260906091323 20 183 0.0 0.0 0.00 0.00 0.00 99 1017.5
20260906090820 20 178 0.0 0.0 0.00 0.00 0.00 99 1017.4
20260906090318 20 186 1.6 3.2 0.00 0.00 0.00 99 1017.2
20260906085818 20 163 1.6 1.6 0.00 0.00 0.00 99 1017.3
20260906085311 20 167 1.6 1.6 0.00 0.00 0.00 99 1017.2
20260906084807 20 150 4.8 8.0 0.00 0.00 0.00 99 1017.3
20260906084306 20 129 3.2 3.2 0.00 0.00 0.00 99 1017.2
20260906083801 20 140 4.8 4.8 0.00 0.00 0.00 99 1017.3
20260906083257 20 173 0.0 1.6 0.00 0.00 0.00 99 1017.3
20260906082751 20 133 0.0 0.0 0.00 0.00 0.00 99 1017.2
20260906082246 20 115 3.2 4.8 0.00 0.00 0.00 99 1016.9
20260906081742 20 153 4.8 4.8 0.00 0.00 0.00 99 1017.1
20260906081237 20 27 0.0 1.6 0.00 0.00 0.00 99 1017.1
20260906080733 20 126 0.0 0.0 0.00 0.00 0.00 99 1017.0
20260906080230 20 90 0.0 1.6 0.00 0.00 0.00 99 1017.4
20260906075724 20 155 0.0 1.6 0.00 0.00 0.00 99 1017.2
20260906075224 20 150 1.6 1.6 0.00 0.00 0.00 99 1017.1
20260906074719 20 185 3.2 3.2 0.00 0.00 0.00 99 1017.2
20260906074218 20 144 0.0 1.6 0.00 0.00 0.00 99 1017.2
20260906073713 20 204 1.6 1.6 0.00 0.00 0.00 99 1017.3
20260906073208 20 120 3.2 3.2 0.00 0.00 0.00 99 1017.4
20260906072704 20 147 0.0 1.6 0.00 0.00 0.00 99 1017.3
20260906072159 20 117 0.0 1.6 0.00 0.00 0.00 99 1017.4
20260906071655 20 148 0.0 0.0 0.00 0.00 0.00 99 1017.3
20260906071154 20 180 1.6 1.6 0.00 0.00 0.00 99 1017.4
20260906070652 20 136 0.0 1.6 0.00 0.00 0.00 99 1017.6
20260906070147 20 155 0.0 0.0 0.00 0.00 0.00 99 1017.6
20260906065646 20 149 3.2 3.2 0.00 0.00 0.00 99 1017.7
20260906065142 20 183 1.6 1.6 0.00 0.00 0.00 99 1017.5
20260906064638 20 171 1.6 3.2 0.00 0.00 0.00 99 1017.6
20260906064133 20 150 3.2 4.8 0.00 0.00 0.00 99 1018.0
20260906063628 20 108 4.8 4.8 0.00 0.00 0.00 99 1017.7
20260906063124 20 188 1.6 1.6 0.00 0.00 0.00 99 1017.9
20260906062619 20 135 0.0 1.6 0.00 0.00 0.00 99 1017.6
20260906062118 20 150 0.0 1.6 0.00 0.00 0.00 99 1017.8
20260906061614 20 188 0.0 0.0 0.00 0.00 0.00 99 1017.9
20260906061114 20 276 0.0 0.0 0.00 0.00 0.00 99 1017.9
20260906060611 20 139 0.0 0.0 0.00 0.00 0.00 99 1018.1
20260906060108 20 103 0.0 1.6 0.00 0.00 0.00 99 1017.9
20260906055603 20 136 0.0 0.0 0.00 0.00 0.00 99 1018.0
20260906055058 21 184 1.6 1.6 0.00 0.00 0.00 99 1017.8
20260906054558 21 170 1.6 1.6 0.00 0.00 0.00 99 1017.8
20260906054054 21 149 0.0 0.0 0.00 0.00 0.00 99 1017.9
20260906053550 21 196 0.0 0.0 0.00 0.00 0.00 99 1017.7
20260906053045 21 141 1.6 1.6 0.00 0.00 0.00 99 1017.6
20260906052540 21 161 1.6 1.6 0.00 0.00 0.00 99 1017.8
20260906052038 21 174 1.6 1.6 0.00 0.00 0.00 99 1017.7
20260906051533 21 90 0.0 1.6 0.00 0.00 0.00 99 1017.7
20260906051028 21 156 1.6 1.6 0.00 0.00 0.00 99 1017.8
20260906050523 21 118 0.0 0.0 0.00 0.00 0.00 99 1017.7
20260906050018 21 177 0.0 0.0 0.00 0.03 0.03 99 1017.7
20260906045516 21 126 0.0 1.6 0.00 0.03 0.03 99 1017.6
20260906045012 21 45 3.2 3.2 0.00 0.03 0.03 99 1017.4
20260906044508 21 40 1.6 1.6 0.00 0.03 0.03 99 1017.5
20260906044003 21 110 0.0 0.0 0.00 0.03 0.03 99 1017.4
20260906043459 21 182 0.0 1.6 0.00 0.03 0.03 99 1017.4
20260906042954 21 98 1.6 1.6 0.00 0.03 0.03 99 1017.2
20260906042453 21 46 1.6 1.6 0.00 0.03 0.03 99 1017.7
20260906041953 21 24 0.0 1.6 0.00 0.03 0.03 99 1017.5
20260906041450 21 18 0.0 0.0 0.00 0.03 0.03 99 1017.3
20260906040949 21 325 0.0 0.0 0.00 0.03 0.03 99 1017.5
20260906040444 21 330 0.0 1.6 0.00 0.03 0.03 99 1017.5
20260906035939 21 127 0.0 0.0 0.00 0.03 0.03 99 1017.1
20260906035435 21 128 1.6 1.6 0.00 0.03 0.03 99 1017.4
20260906034930 21 177 0.0 0.0 0.00 0.03 0.03 99 1017.3
20260906034425 21 150 0.0 0.0 0.00 0.03 0.03 99 1017.4
20260906033920 21 171 1.6 1.6 0.00 0.03 0.03 99 1017.5
20260906033415 21 181 0.0 0.0 0.00 0.03 0.03 99 1017.5
20260906032910 21 214 0.0 0.0 0.00 0.03 0.03 99 1017.4
20260906032407 22 188 0.0 0.0 0.00 0.03 0.03 99 1017.4
20260906031901 22 179 0.0 0.0 0.00 0.03 0.03 99 1017.3
20260906031356 22 194 0.0 1.6 0.00 0.03 0.03 99 1017.3
20260906030851 22 130 0.0 0.0 0.00 0.03 0.03 99 1017.2
20260906030346 22 159 0.0 0.0 0.00 0.03 0.03 99 1017.2
20260906025841 22 88 0.0 0.0 0.00 0.03 0.03 99 1017.4
20260906025335 22 333 1.6 1.6 0.00 0.03 0.03 99 1017.3
20260906024834 22 235 0.0 0.0 0.00 0.03 0.03 99 1017.2
20260906024333 22 235 0.0 0.0 0.00 0.03 0.03 99 1017.1
20260906023829 22 242 0.0 0.0 0.00 0.03 0.03 99 1017.1
20260906023325 22 246 0.0 0.0 0.00 0.03 0.03 99 1017.1
20260906022820 22 284 0.0 0.0 0.00 0.03 0.03 98 1016.8
20260906022315 22 315 0.0 1.6 0.00 0.03 0.03 99 1017.2
20260906021811 22 265 0.0 0.0 0.00 0.03 0.03 98 1016.8
20260906021310 22 256 0.0 0.0 0.00 0.03 0.03 98 1016.5
20260906020804 22 256 0.0 0.0 0.00 0.03 0.03 98 1016.5
20260906020259 22 258 0.0 0.0 0.00 0.03 0.03 98 1016.5
20260906015759 22 329 0.0 1.6 0.00 0.03 0.03 98 1016.5
20260906015257 22 36 0.0 0.0 0.00 0.03 0.03 98 1016.2
20260906014752 22 130 0.0 0.0 0.00 0.03 0.03 98 1016.1
20260906014248 22 80 0.0 1.6 0.00 0.03 0.03 97 1016.2
20260906013743 22 210 0.0 0.0 0.00 0.03 0.03 97 1016.1
20260906013243 22 215 0.0 0.0 0.00 0.03 0.03 96 1016.3
20260906012739 22 156 0.0 0.0 0.00 0.03 0.03 96 1016.2
20260906012234 23 157 0.0 0.0 0.00 0.03 0.03 96 1015.9
20260906011729 23 156 0.0 0.0 0.00 0.03 0.03 96 1016.0
20260906011228 23 156 0.0 0.0 0.00 0.03 0.03 95 1016.1
20260906010724 23 158 0.0 0.0 0.00 0.03 0.03 95 1015.9
20260906010221 23 156 0.0 0.0 0.00 0.03 0.03 95 1015.9
20260906005721 23 156 0.0 0.0 0.00 0.03 0.03 94 1016.0
20260906005214 23 156 0.0 0.0 0.00 0.03 0.03 94 1015.8
20260906004713 23 156 0.0 1.6 0.00 0.03 0.03 93 1015.9
20260906004203 24 137 0.0 0.0 0.00 0.03 0.03 92 1015.9
20260906003658 24 167 0.0 0.0 0.00 0.03 0.03 91 1015.9
20260906003154 24 139 0.0 0.0 0.00 0.03 0.03 91 1015.7
20260906002654 25 139 0.0 0.0 0.00 0.03 0.03 91 1015.8
20260906002148 25 184 0.0 0.0 0.00 0.03 0.03 91 1015.8
20260906001644 25 143 0.0 1.6 0.00 0.03 0.03 90 1015.6
20260906001143 25 146 1.6 3.2 0.00 0.03 0.03 89 1015.7
20260906000639 25 158 1.6 1.6 0.00 0.03 0.03 89 1015.5
20260906000135 25 106 6.4 8.0 0.00 0.03 0.03 88 1015.7
20260905235633 26 136 8.0 11.3 0.00 0.03 0.03 88 1015.7
20260905235129 26 151 1.6 1.6 0.00 0.03 0.03 88 1015.6
20260905234624 26 189 0.0 0.0 0.00 0.03 0.03 87 1015.6
20260905234119 26 334 0.0 1.6 0.00 0.03 0.03 86 1015.6
20260905233614 26 156 0.0 0.0 0.00 0.03 0.03 87 1015.2
20260905233108 26 330 0.0 1.6 0.00 0.03 0.03 87 1015.4
20260905232604 26 146 4.8 8.0 0.00 0.03 0.03 86 1015.3
20260905232100 26 100 3.2 4.8 0.00 0.03 0.03 86 1014.9
20260905231554 26 110 3.2 4.8 0.00 0.03 0.03 86 1014.9
20260905231051 27 77 1.6 1.6 0.00 0.03 0.03 86 1015.3
20260905230550 26 314 1.6 1.6 0.00 0.03 0.03 87 1015.1
20260905230049 26 195 1.6 3.2 0.00 0.03 0.03 87 1014.9
20260905225548 26 87 0.0 1.6 0.00 0.03 0.03 87 1014.9
20260905225043 26 152 3.2 3.2 0.00 0.03 0.03 85 1015.1
20260905224538 27 61 1.6 1.6 0.00 0.03 0.03 85 1014.9
20260905224037 26 60 1.6 3.2 0.00 0.03 0.03 85 1014.9
20260905223535 26 129 1.6 3.2 0.00 0.03 0.03 86 1014.8
20260905223031 26 160 0.0 0.0 0.00 0.03 0.03 88 1014.9
20260905222531 26 136 0.0 1.6 0.00 0.03 0.03 87 1014.9
20260905222026 26 145 3.2 3.2 0.00 0.03 0.03 87 1015.0
20260905221522 26 200 4.8 4.8 0.00 0.03 0.03 86 1015.0
20260905221018 26 148 1.6 1.6 0.00 0.03 0.03 87 1015.1
20260905220514 26 54 1.6 1.6 0.00 0.03 0.03 87 1014.9
20260905220009 26 122 0.0 1.6 0.00 0.03 0.03 87 1014.9
20260905215504 26 147 1.6 1.6 0.00 0.03 0.03 87 1014.9
20260905214959 26 140 1.6 1.6 0.00 0.03 0.03 87 1015.0
20260905214450 26 102 1.6 3.2 0.00 0.03 0.03 87 1015.1
20260905213950 26 59 4.8 4.8 0.00 0.03 0.03 87 1015.2
20260905213446 26 129 3.2 3.2 0.00 0.03 0.03 86 1015.3
20260905212941 26 220 1.6 1.6 0.00 0.03 0.03 87 1015.1
20260905212436 26 36 1.6 3.2 0.00 0.03 0.03 87 1015.2
20260905211935 26 318 1.6 1.6 0.00 0.03 0.03 87 1015.3
20260905211431 26 73 1.6 1.6 0.00 0.03 0.03 88 1015.2
20260905210927 25 119 1.6 1.6 0.00 0.03 0.03 89 1015.0
20260905210427 25 138 1.6 1.6 0.00 0.03 0.03 89 1015.1
20260905205926 25 30 1.6 3.2 0.00 0.03 0.03 90 1014.9
20260905205421 25 95 1.6 1.6 0.00 0.03 0.03 90 1015.1
20260905204920 25 92 1.6 3.2 0.00 0.03 0.03 90 1015.3
20260905204417 25 100 3.2 4.8 0.00 0.03 0.03 90 1015.3
20260905203915 25 118 3.2 4.8 0.00 0.03 0.03 91 1015.4
20260905203411 25 47 3.2 3.2 0.00 0.03 0.03 91 1015.2
20260905202906 25 80 3.2 4.8 0.00 0.03 0.03 90 1015.4
20260905202401 25 73 3.2 4.8 0.00 0.03 0.03 90 1015.7
20260905201856 25 177 1.6 3.2 0.00 0.03 0.03 90 1015.7
20260905201352 25 159 0.0 1.6 0.00 0.03 0.03 89 1015.6
20260905200846 25 322 1.6 1.6 0.00 0.03 0.03 89 1015.8
20260905200342 26 55 8.0 8.0 0.00 0.03 0.03 88 1016.1
20260905195840 26 155 8.0 9.7 0.00 0.03 0.03 87 1015.9
20260905195335 26 37 4.8 11.3 0.00 0.03 0.03 88 1015.5
20260905194831 25 91 3.2 4.8 0.00 0.03 0.03 90 1015.2
20260905194330 25 134 4.8 4.8 0.00 0.03 0.03 89 1015.3
20260905193830 25 99 1.6 3.2 0.00 0.03 0.03 90 1015.5
20260905193325 25 78 3.2 4.8 0.00 0.03 0.03 91 1015.1
20260905192820 25 176 6.4 11.3 0.00 0.03 0.03 90 1014.9
20260905192316 25 142 4.8 4.8 0.00 0.03 0.03 90 1015.2
20260905191815 25 9 4.8 8.0 0.00 0.03 0.03 90 1015.6
20260905191314 25 84 6.4 9.7 0.00 0.03 0.03 90 1015.8
20260905190813 25 67 0.0 0.0 0.00 0.03 0.03 91 1016.3
20260905190307 25 47 1.6 1.6 0.00 0.03 0.03 91 1016.6
20260905185806 25 345 1.6 3.2 0.00 0.03 0.03 91 1016.9
20260905185305 25 54 4.8 4.8 0.00 0.03 0.03 91 1017.0
20260905184800 25 119 1.6 1.6 0.00 0.03 0.03 92 1017.1
20260905184254 25 347 1.6 1.6 0.00 0.03 0.03 91 1017.2
20260905183753 25 254 0.0 1.6 0.00 0.03 0.03 91 1017.5
20260905183248 25 249 0.0 1.6 0.00 0.03 0.03 91 1017.1
20260905182748 25 289 4.8 4.8 0.00 0.03 0.03 92 1017.3
20260905182242 25 106 1.6 1.6 0.00 0.03 0.03 94 1017.3
20260905181737 25 119 4.8 8.0 0.00 0.03 0.03 93 1017.1
20260905181236 25 171 0.0 1.6 0.00 0.03 0.03 95 1017.2
20260905180731 25 52 4.8 8.0 0.00 0.03 0.03 95 1016.9
20260905180226 24 88 3.2 3.2 0.00 0.03 0.03 96 1017.0
20260905175721 24 50 1.6 3.2 0.00 0.03 0.03 96 1017.1
20260905175215 24 187 1.6 1.6 0.00 0.03 0.03 97 1017.3
20260905174711 24 336 1.6 1.6 0.00 0.03 0.03 97 1017.3
20260905174206 24 299 1.6 1.6 0.00 0.03 0.03 97 1017.4
20260905173702 24 25 3.2 3.2 0.00 0.03 0.03 97 1017.6
20260905173158 24 12 0.0 1.6 0.00 0.03 0.03 98 1017.4
20260905172657 24 102 0.0 0.0 0.00 0.03 0.03 98 1017.6
20260905172152 24 329 4.8 4.8 0.00 0.03 0.03 98 1017.4
20260905171647 25 133 1.6 1.6 0.00 0.03 0.03 99 1017.5
20260905171143 25 289 1.6 3.2 0.00 0.03 0.03 99 1017.2
20260905170640 25 318 1.6 1.6 0.00 0.03 0.03 99 1017.1
20260905170135 24 99 1.6 1.6 0.00 0.03 0.03 99 1017.2
20260905165635 25 27 3.2 3.2 0.00 0.03 0.03 99 1017.2
20260905165130 25 88 1.6 1.6 0.00 0.03 0.03 99 1017.1
20260905164625 24 95 0.0 0.0 0.00 0.03 0.03 99 1017.3
20260905164124 24 123 1.6 1.6 0.00 0.03 0.03 99 1017.1
20260905163621 24 340 1.6 3.2 0.00 0.03 0.03 99 1017.0
20260905163117 24 265 1.6 1.6 0.00 0.03 0.03 99 1017.1
20260905162613 24 287 0.0 1.6 0.00 0.03 0.03 99 1017.3
20260905162112 25 43 3.2 3.2 0.00 0.03 0.03 99 1017.0
20260905161612 24 218 0.0 0.0 0.00 0.03 0.03 99 1016.9
20260905161109 24 54 3.2 4.8 0.00 0.03 0.03 99 1017.0
20260905160609 24 77 1.6 3.2 0.00 0.03 0.03 99 1017.2
20260905155558 24 238 0.0 0.0 0.00 0.03 0.03 99 1017.0
20260905155056 24 279 0.0 0.0 0.00 0.03 0.03 99 1016.9
20260905154551 24 99 0.0 0.0 0.00 0.03 0.03 99 1016.8
20260905154047 24 272 0.0 0.0 0.00 0.03 0.03 99 1016.9
20260905153543 24 127 1.6 3.2 0.00 0.03 0.03 99 1017.1
20260905153042 24 37 3.2 4.8 0.00 0.03 0.03 99 1016.9
20260905152537 24 326 1.6 1.6 0.00 0.03 0.03 99 1016.9
20260905152032 24 259 0.0 1.6 0.00 0.03 0.03 99 1017.1
20260905151527 24 29 0.0 0.0 0.00 0.03 0.03 99 1017.0
20260905151023 24 77 3.2 8.0 0.00 0.03 0.03 99 1016.8
20260905150518 23 92 1.6 1.6 0.00 0.03 0.03 99 1016.4
20260905150016 23 153 1.6 3.2 0.00 0.03 0.03 99 1016.6
20260905145509 24 90 1.6 4.8 0.00 0.03 0.03 99 1016.5
20260905145009 24 84 3.2 8.0 0.00 0.03 0.03 99 1016.4
20260905144504 24 16 0.0 0.0 0.00 0.03 0.03 99 1016.5
20260905144003 24 246 0.0 0.0 0.00 0.03 0.03 99 1016.4
20260905143502 23 202 0.0 0.0 0.00 0.03 0.03 99 1016.3
20260905142956 23 311 1.6 1.6 0.00 0.03 0.03 99 1016.1
20260905142455 23 165 1.6 1.6 0.00 0.03 0.03 99 1015.8
20260905141951 23 208 0.0 0.0 0.00 0.03 0.03 99 1016.1
20260905141446 23 111 0.0 0.0 0.00 0.03 0.03 99 1016.1
20260905140942 23 276 1.6 1.6 0.00 0.03 0.03 99 1015.8
20260905140437 23 45 0.0 0.0 0.00 0.03 0.03 99 1016.0
20260905135936 23 309 0.0 1.6 0.00 0.03 0.03 99 1016.0
20260905135432 23 282 0.0 0.0 0.00 0.03 0.03 99 1015.6
20260905134927 23 323 1.6 1.6 0.00 0.03 0.03 99 1015.9
20260905134426 23 89 0.0 0.0 0.00 0.03 0.03 99 1015.5
20260905133920 23 128 0.0 0.0 0.00 0.03 0.03 99 1015.8
20260905133415 22 207 0.0 0.0 0.00 0.03 0.03 99 1015.5
20260905132914 22 75 0.0 0.0 0.00 0.03 0.03 99 1015.7
20260905132410 22 319 0.0 0.0 0.00 0.03 0.03 99 1015.3
20260905131904 22 67 0.0 1.6 0.00 0.03 0.03 99 1015.5
20260905131400 22 97 0.0 1.6 0.00 0.03 0.03 99 1015.4
20260905130855 22 187 0.0 0.0 0.00 0.03 0.03 99 1015.4
20260905130354 22 97 0.0 0.0 0.00 0.03 0.03 99 1015.0